Location: Clarks Summit,Pa.
(41.5000°N, 75.6000°W)
Time: 13:02:01
(UTC-04:00)

OTV 5 (USA 277) - Visible Passes

Search period start: 19 September 2018 00:00
Search period end: 29 September 2018 00:00
Orbit: 387 x 394 km, 54.5° (Epoch: 08 September)

Date Brightness Start Highest point End Pass type
(mag) Time Alt. Az. Time Alt. Az. Time Alt. Az.
24 Sep ? 05:59:50 10° SE 06:00:29 10° SE 06:01:10 10° ESE visible
26 Sep ? 05:41:01 10° S 05:43:30 20° SE 05:45:58 10° ENE visible
27 Sep ? 06:19:39 10° SW 06:22:50 82° NW 06:26:03 10° NE visible
28 Sep ? 05:25:17 27° S 05:26:33 40° SE 05:29:36 10° ENE visible
